Home > Weather > Mason > Past weeks

Flag for U.S.A. Weather for the Past 2 Weeks in Mason, Ohio, U.S.A.

Now
15 °F

Clear.


Feels Like: 9 °F
Forecast: 11 / 28 °F
Wind: 3 mph from East

Location: Butler County Regional Airport

Current Time: Feb 12, 2016 at 12:53:31 AM

Latest Report: Feb 11, 2016 at 11:53 PM


Visibility: 10 mi

Pressure: 30.33 "Hg

Humidity: 83%

Dew point: 11 °F

Location of MasonLocation

Historic Weather in Mason — Graph

°F

Mason Temperature Yesterday

Maximum temperature yesterday: 24 °F (at 2:53 PM)
Minimum temperature yesterday: 6 °F (at 7:53 AM)
Average temperature yesterday: 17 °F

High & Low Weather Summary for the Past Weeks

 TemperatureHumidityPressure
High65 °F (Jan 30, 2:53 PM)97% (Feb 3, 1:03 AM)30.47 "Hg (Feb 3, 1:03 AM)
Low6 °F (Feb 11, 7:53 AM)27% (Feb 7, 2:53 PM)29.57 "Hg (Feb 3, 2:53 AM)
Average36 °F68%30.00 "Hg
* Reported Jan 27 10:53 PM — Feb 11 10:53 PM, Mason, Weather by CustomWeather, © 2016

Note: Actual official high and low records may vary slightly from our data, if they occured in-between our weather recording intervals... More about our weather records

Advertising

Mason Weather History for the Previous 24 Hours

 ConditionsComfort  
Time TempWeatherWind HumidityBarometerVisibility
10:53 PM
Thu, Feb 11
17 °FClear.No wind76%30.34 "Hg10 mi
9:53 PM16 °FClear.No wind77%30.36 "Hg10 mi
8:53 PM15 °FClear.No wind77%30.36 "Hg10 mi
7:53 PM15 °FClear.No wind77%30.37 "Hg10 mi
6:53 PM18 °FClear.No wind68%30.36 "Hg10 mi
5:53 PM22 °FSunny.6 mph46%30.35 "Hg10 mi
3:53 PM24 °FPassing clouds.5 mph42%30.33 "Hg10 mi
2:53 PM24 °FScattered clouds.No wind42%30.33 "Hg10 mi
1:53 PM23 °FSunny.6 mph44%30.32 "Hg10 mi
12:53 PM22 °FScattered clouds.8 mph46%30.33 "Hg10 mi
11:53 AM21 °FSunny.6 mph47%30.35 "Hg10 mi
10:53 AM20 °FSunny.5 mph55%30.34 "Hg10 mi
9:53 AM17 °FSunny.7 mph62%30.34 "Hg10 mi
8:53 AM15 °FSunny.5 mph74%30.32 "Hg10 mi
7:53 AM6 °FSunny.No wind83%30.30 "Hg10 mi
6:53 AM12 °FPassing clouds.No wind77%30.27 "Hg10 mi
5:53 AM15 °FOvercast.3 mph70%30.24 "Hg10 mi
4:53 AM15 °FPassing clouds.3 mph70%30.22 "Hg10 mi
3:53 AM12 °FOvercast.5 mph77%30.20 "Hg10 mi
2:53 AM8 °FClear.No wind83%30.21 "Hg10 mi
1:53 AM13 °FOvercast.3 mph77%30.20 "Hg10 mi
12:53 AM14 °FOvercast.5 mph71%30.20 "Hg10 mi
Weather by CustomWeather, © 2016

See weather overviewHow to use our weather pages